[[{"header":{"parameterUnit":"m.s-1","parameterCategory":1,"la1":30.2991,"la2":30.254,"lo1":-89.0895,"lo2":-89.0444,"dy":0.0017,"dx":0.0017,"nx":28,"ny":28,"refTime":"2025-11-22T03:00:00:Z","depth":0,"parameterNumber":2,"parameterNumberName":"U-component_of_WINDS"},"data":[0,0,0,0,0,0,0,0,0,0,0,0,0,0,0,0,0,0,0,0,0,0,0,0,0,0,0,0,0,0,0,0,0,0,0,0,0,0,0,0,0,0,0,0,0,0,0,0,0,0,0,0,0,0,0,0,0,0,0.3154,0.3154,0,0.3143,0.3143,0.3143,0.3114,0.3114,0.3113,0.3113,0.3102,0.3103,0.3103,0,0,0,0,0,0,0,0,0,0,0,0,0,0.315,0.315,0.3154,0.3154,0.3153,0.3143,0.3143,0.3143,0.3115,0.3114,0.3113,0.3112,0.3102,0.3102,0.3103,0,0,0,0,0,0,0,0,0,0,0,0,0,0.3147,0.315,0.3154,0.3138,0.3137,0.3143,0.3143,0.3143,0.3115,0.3114,0.3113,0.3112,0.3102,0.3102,0.3103,0.3124,0,0,0.3104,0.3104,0,0,0,0,0,0,0,0,0.3147,0.3147,0.3141,0.3139,0.3138,0.3129,0.3138,0.3136,0.3115,0.3123,0.3113,0.3112,0.3112,0.3112,0.3112,0.3123,0.3123,0.3104,0.3104,0.3105,0.3105,0,0,0,0,0,0,0,0.3147,0.3147,0.3149,0.3141,0.3139,0.3132,0.313,0.3137,0.3123,0.3122,0.312,0.3119,0.3111,0.3111,0.3111,0.3123,0.3104,0.3105,0.3105,0.3105,0.3151,0.3152,0,0,0,0,0,0,0.3149,0.3147,0.315,0.3149,0.314,0.3132,0.3131,0.3133,0.3123,0.312,0.312,0.3118,0.3111,0.3111,0.3111,0.3135,0.3105,0.3105,0.3105,0.315,0.3151,0.3152,0,0,0,0,0,0,0.315,0.315,0.315,0.3148,0.3147,0.3133,0.3136,0.3133,0.3133,0.3121,0.3118,0.3123,0.311,0.311,0.3121,0.3134,0.3105,0.3106,0.3149,0.315,0.3151,0.3183,0,0,0,0,0,0,0.315,0.315,0.3158,0.3148,0.3147,0.3161,0.3137,0.3133,0.3134,0.3131,0.3123,0.3121,0.3109,0.312,0.3121,0.3134,0.3106,0.3147,0.3149,0.3151,0.318,0.3185,0.3189,0,0,0,0,0,0.3149,0.3167,0.3159,0.3159,0.3157,0.3161,0.3161,0.3148,0.3135,0.3143,0.3135,0.3121,0.3132,0.3121,0.3122,0.3135,0.3147,0.3149,0.3151,0.3179,0.3184,0.3189,0,0,0,0,0,0,0.318,0.3166,0.3156,0.3171,0.3168,0.3157,0.3166,0.3154,0.3154,0.3152,0.3135,0.3133,0.3146,0.3142,0.313,0.3155,0.3137,0.3139,0.3158,0.3163,0.3167,0.3168,0.3106,0,0,0,0,0,0.3188,0.3193,0.318,0.3195,0.3194,0.318,0.3182,0.3171,0.3167,0.3166,0.3158,0.3155,0.3158,0.316,0.3161,0.3179,0.3177,0.3189,0.3193,0.3196,0.3199,0.3208,0.3213,0.3159,0.3159,0.3159,0,0,0.3206,0.3198,0.3203,0.3201,0.3197,0.3202,0.3179,0.3186,0.319,0.3167,0.3177,0.3171,0.3166,0.318,0.3186,0.3177,0.3213,0.3199,0.3202,0.3203,0.3211,0.3216,0.3221,0.3161,0.316,0.316,0,0,0.324,0.3235,0.3247,0.3243,0.3237,0.3228,0.3231,0.3222,0.3217,0.3226,0.3209,0.3213,0.3218,0.3216,0.3215,0.3247,0.3235,0.3248,0.3271,0.328,0.3285,0.3288,0.3301,0.3305,0.3251,0.3251,0.3251,0,0.3263,0.327,0.3255,0.3262,0.3262,0.3241,0.3253,0.325,0.3245,0.3245,0.3235,0.324,0.3235,0.3249,0.3257,0.3257,0.326,0.325,0.3285,0.3289,0.3292,0.3304,0.3308,0.3253,0.3252,0.3252,0.3252,0,0.3299,0.3304,0.3314,0.331,0.331,0.332,0.3306,0.3308,0.3298,0.329,0.3299,0.3293,0.3293,0.3295,0.3285,0.3307,0.3301,0.3288,0.327,0.3299,0.331,0.3314,0.3255,0.3255,0.3254,0.3254,0,0,0.3353,0.3339,0.3344,0.3341,0.3333,0.3337,0.3345,0.3345,0.3348,0.3345,0.3352,0.3356,0.3343,0.3343,0.3332,0.334,0.3367,0.3325,0.3325,0.3334,0.3391,0.3402,0.3408,0.3358,0.3358,0.3359,0.3392,0,0.3387,0.3401,0.3386,0.3403,0.3408,0.3387,0.3395,0.3391,0.3383,0.3386,0.3377,0.3381,0.3364,0.3363,0.337,0.3362,0.3378,0.3359,0.3365,0.3365,0.3368,0.3413,0.3424,0.3456,0.3396,0.3397,0.3397,0,0.3428,0.3427,0.3444,0.3434,0.3436,0.3443,0.3441,0.3444,0.3438,0.3432,0.3431,0.3418,0.3425,0.3407,0.3417,0.3405,0.3406,0.3402,0.3403,0.3404,0.3384,0.3416,0.3466,0.3471,0.3403,0.3403,0.3402,0,0.3467,0.3469,0.348,0.3479,0.3467,0.3473,0.3468,0.3462,0.3463,0.3461,0.3461,0.3461,0.3461,0.3461,0.3448,0.3435,0.346,0.344,0.3456,0.3457,0.3463,0.3463,0.3515,0.3462,0.3462,0.3462,0.3462,0,0.3506,0.3518,0.3498,0.3504,0.3517,0.35,0.3513,0.3506,0.35,0.3505,0.3487,0.3492,0.3474,0.3478,0.3467,0.3478,0.3478,0.3474,0.3471,0.3476,0.3477,0.3477,0.3475,0.3463,0.3463,0.3463,0.3463,0,0.3553,0.3539,0.355,0.3538,0.3535,0.3545,0.3535,0.3541,0.3531,0.3538,0.3539,0.3524,0.3527,0.3514,0.3515,0.3508,0.3524,0.3517,0.3526,0.3524,0.3541,0.354,0.3596,0.3603,0.3545,0.3545,0.3546,0,0.3579,0.3588,0.3577,0.3579,0.3575,0.3578,0.3579,0.3562,0.3564,0.3558,0.3564,0.3566,0.3566,0.3572,0.3562,0.3562,0.3556,0.3575,0.3556,0.3561,0.3557,0.3557,0.3558,0.358,0.358,0.3581,0.3581,0,0.3628,0.3621,0.3622,0.3621,0.3622,0.362,0.3618,0.362,0.3602,0.3605,0.3607,0.3608,0.3608,0.361,0.3608,0.3604,0.359,0.3587,0.3591,0.3597,0.3602,0.3601,0.3538,0.3587,0.3586,0.3586,0.3585,0.3585,0.3666,0.3672,0.3666,0.3668,0.3663,0.3661,0.3666,0.3657,0.3659,0.3658,0.3648,0.3653,0.3647,0.3643,0.364,0.3643,0.3634,0.364,0.3641,0.3643,0.3646,0.3601,0.3643,0.3643,0.3643,0.3642,0.3642,0,0.3714,0.3709,0.3711,0.3707,0.3709,0.3695,0.3691,0.3693,0.3697,0.3693,0.3693,0.3697,0.3698,0.3688,0.3688,0.3693,0.3687,0.3694,0.3694,0.3693,0.3654,0.3651,0.3699,0.3699,0.3699,0.3699,0.3699,0.3699,0.374,0.375,0.3742,0.3751,0.3745,0.3749,0.3748,0.3746,0.3742,0.3747,0.3748,0.3741,0.3734,0.3733,0.3734,0.3731,0.3733,0.3742,0.3737,0.3701,0.3696,0.3691,0.3688,0.3742,0.3742,0.3776,0.3776,0.3776]},{"header":{"parameterUnit":"m.s-1","parameterCategory":1,"la1":30.2991,"la2":30.254,"lo1":-89.0895,"lo2":-89.0444,"dy":0.0017,"dx":0.0017,"nx":28,"ny":28,"refTime":"2025-11-22T03:00:00:Z","depth":0,"parameterNumber":3,"parameterNumberName":"V-component_of_WINDS"},"data":[0,0,0,0,0,0,0,0,0,0,0,0,0,0,0,0,0,0,0,0,0,0,0,0,0,0,0,0,0,0,0,0,0,0,0,0,0,0,0,0,0,0,0,0,0,0,0,0,0,0,0,0,0,0,0,0,0,0,4.1394,4.1393,0,4.1318,4.1317,4.1316,4.1242,4.1241,4.124,4.1239,4.1158,4.1157,4.1156,0,0,0,0,0,0,0,0,0,0,0,0,0,4.1472,4.1471,4.1394,4.1393,4.1392,4.1318,4.1317,4.1316,4.1242,4.1241,4.124,4.1239,4.1159,4.1157,4.1156,0,0,0,0,0,0,0,0,0,0,0,0,0,4.1421,4.147,4.1394,4.1346,4.1341,4.1318,4.1317,4.1316,4.1243,4.1241,4.124,4.1238,4.1159,4.1157,4.1155,4.1172,0,0,4.115,4.1149,0,0,0,0,0,0,0,0,4.1424,4.1418,4.1354,4.135,4.1344,4.1288,4.1315,4.1267,4.1243,4.128,4.1239,4.1238,4.1202,4.1197,4.1186,4.1168,4.1165,4.1149,4.1148,4.1147,4.1147,0,0,0,0,0,0,0,4.1428,4.1421,4.1364,4.1353,4.1347,4.1328,4.1319,4.1305,4.125,4.1277,4.1271,4.1263,4.1199,4.1188,4.1183,4.1164,4.1149,4.1148,4.1147,4.1146,4.1157,4.1158,0,0,0,0,0,0,4.1439,4.1425,4.1366,4.1361,4.1381,4.1328,4.1318,4.1307,4.125,4.124,4.1265,4.126,4.1192,4.1185,4.118,4.1196,4.1147,4.1146,4.1145,4.1156,4.1157,4.1159,0,0,0,0,0,0,4.1441,4.1434,4.1369,4.1391,4.1382,4.1328,4.1317,4.1307,4.1295,4.1241,4.123,4.1263,4.119,4.1183,4.1175,4.1193,4.1145,4.1143,4.1154,4.1156,4.1158,4.123,0,0,0,0,0,0,4.1443,4.1435,4.1442,4.1392,4.1381,4.1367,4.1318,4.1306,4.1292,4.1286,4.1237,4.1227,4.1188,4.1178,4.1173,4.1189,4.1142,4.1152,4.1155,4.1157,4.1225,4.1234,4.1241,0,0,0,0,0,4.1446,4.1464,4.1443,4.1436,4.1388,4.1368,4.1361,4.1317,4.1294,4.13,4.1265,4.1229,4.1192,4.1178,4.1172,4.1187,4.1151,4.1154,4.1157,4.1222,4.1232,4.1241,0,0,0,0,0,0,4.1516,4.1457,4.1432,4.1435,4.1407,4.1355,4.1361,4.1329,4.1307,4.1301,4.1247,4.1236,4.1235,4.121,4.1196,4.1201,4.1166,4.1168,4.1217,4.1227,4.1235,4.1241,4.114,0,0,0,0,0,4.1532,4.1522,4.147,4.1477,4.1464,4.1416,4.1405,4.1374,4.1342,4.133,4.1294,4.1265,4.1246,4.1235,4.1215,4.1221,4.121,4.1229,4.1237,4.1244,4.1246,4.1248,4.1256,4.117,4.1169,4.1169,0,0,4.1564,4.1531,4.1527,4.149,4.1465,4.1455,4.1406,4.1397,4.1389,4.1328,4.1319,4.1292,4.1255,4.1255,4.1253,4.1234,4.1268,4.1248,4.1254,4.1252,4.1252,4.1261,4.1268,4.1172,4.1171,4.1171,0,0,4.1618,4.1592,4.1595,4.1571,4.1534,4.1502,4.1503,4.1456,4.1436,4.1427,4.1382,4.137,4.1339,4.1315,4.1299,4.1344,4.131,4.1339,4.138,4.1383,4.139,4.1396,4.1413,4.1419,4.1342,4.1342,4.1342,0,4.1663,4.1647,4.1601,4.1595,4.158,4.1526,4.1529,4.1507,4.1465,4.1456,4.1436,4.1397,4.1368,4.1361,4.1373,4.1361,4.136,4.1345,4.1393,4.1398,4.1403,4.1418,4.1425,4.1346,4.1345,4.1345,4.1344,0,4.1704,4.1693,4.17,4.1663,4.1648,4.1647,4.16,4.1591,4.1561,4.153,4.1522,4.1485,4.1457,4.1453,4.1423,4.1443,4.1432,4.1403,4.1367,4.1416,4.143,4.1435,4.1351,4.135,4.1349,4.1348,0,0,4.1799,4.1737,4.1741,4.1723,4.1679,4.1669,4.1665,4.1639,4.1633,4.1605,4.16,4.1576,4.1549,4.1531,4.1497,4.15,4.1539,4.147,4.1469,4.1485,4.1559,4.1582,4.159,4.1516,4.1517,4.1518,4.1563,0,4.1846,4.1837,4.1796,4.1798,4.1788,4.1737,4.1733,4.1705,4.1677,4.1663,4.1631,4.1615,4.158,4.1569,4.1569,4.1535,4.1554,4.1531,4.1511,4.1511,4.1523,4.1597,4.162,4.1664,4.1568,4.1568,4.1569,0,4.1899,4.1878,4.188,4.1837,4.1831,4.1828,4.1801,4.1789,4.1756,4.1735,4.1715,4.1679,4.1671,4.1637,4.1625,4.1611,4.16,4.1582,4.1583,4.158,4.1543,4.1596,4.1677,4.1684,4.1577,4.1576,4.1576,0,4.197,4.1941,4.1939,4.1925,4.1874,4.1874,4.1852,4.1818,4.1805,4.1781,4.1773,4.1748,4.1734,4.1715,4.1673,4.1652,4.1666,4.1629,4.1648,4.1649,4.1654,4.1654,4.1735,4.1646,4.1646,4.1646,4.1646,0,4.2027,4.2031,4.197,4.1969,4.1971,4.1923,4.1926,4.19,4.187,4.1862,4.1815,4.1809,4.1753,4.1739,4.1706,4.1702,4.1695,4.1678,4.1669,4.1683,4.1685,4.1675,4.1671,4.1648,4.1647,4.1647,4.1647,0,4.2107,4.2066,4.206,4.2013,4.2001,4.2005,4.1964,4.1961,4.1929,4.192,4.1915,4.1866,4.1848,4.1803,4.1773,4.175,4.1756,4.1739,4.1768,4.1762,4.1784,4.1783,4.1862,4.187,4.1776,4.1777,4.1778,0,4.2146,4.2148,4.2101,4.2094,4.2074,4.2062,4.2049,4.2002,4.199,4.1953,4.1954,4.1933,4.1913,4.1887,4.1848,4.1825,4.1807,4.1837,4.1803,4.1817,4.1809,4.1809,4.181,4.1844,4.1845,4.1847,4.1847,0,4.2221,4.2201,4.2185,4.2162,4.2149,4.2128,4.2104,4.21,4.2047,4.2036,4.2018,4.2003,4.1973,4.1953,4.1924,4.19,4.1865,4.1858,4.1862,4.1876,4.1893,4.1885,4.1788,4.1857,4.1856,4.1855,4.1854,4.1854,4.2282,4.2282,4.2249,4.2233,4.2211,4.219,4.2185,4.2154,4.2138,4.2111,4.2083,4.2068,4.2035,4.1993,4.1972,4.1959,4.1941,4.1946,4.1947,4.1949,4.1955,4.1895,4.1953,4.1953,4.1953,4.1952,4.1952,0,4.2355,4.2332,4.2317,4.2287,4.2274,4.2243,4.2216,4.2207,4.2195,4.2167,4.215,4.2129,4.2109,4.2069,4.2045,4.2042,4.2026,4.2038,4.2038,4.2033,4.1973,4.1973,4.2052,4.2052,4.2052,4.2052,4.2052,4.2052,4.2392,4.239,4.2366,4.2352,4.2328,4.2314,4.2302,4.2282,4.226,4.224,4.2224,4.2198,4.2165,4.2139,4.2119,4.2107,4.2101,4.2119,4.2102,4.2047,4.2037,4.2028,4.2028,4.2117,4.2118,4.2164,4.2164,4.2164]}]]